Other Public Products
Issued by NWS Grand Forks, ND

Home | Current Version | Previous Version | Graphics & Text | Print | Product List | Glossary On
Versions: 1 2 3 4 5 6 7 8 9 10 11 12 13 14 15 16 17 18 19 20 21 22 23 24 25 26 27 28 29 30 31 32 33 34 35 36 37 38 39 40 41 42 43 44 45 46 47 48 49 50
000
FPUS83 KFGF 200431
OPUFGF
PRAIRIE TO PINES WEATHER ROUNDUP
NATIONAL WEATHER SERVICE EASTERN NORTH DAKOTA/GRAND FORKS ND
1100 PM CDT SAT AUG 19 2017

 **SATELLITE DATA USED TO AUGMENT SKY COVER AT AUTOMATED STATIONS**
 *****  WEATHER ACROSS EASTERN NORTH DAKOTA  *****

CITY           SKY/WX    TMP DP  RH WIND       PRES   REMARKS
GRAND FORKS    FAIR      72  64  76 S14       29.71S
GRAND FORKS AF FAIR      70  64  81 S10       29.72S
GRAND CITY NWS NOT AVBL
BUXTON           N/A     68  65  92 S7          N/A
DEVILS LAKE    FAIR      71  58  63 NW14      29.77R
FARGO          FAIR      71  64  78 S15G24    29.77S
WAHPETON ARPT  FAIR      64  61  88 SE12      29.81S
$$

 *****  WEATHER ACROSS CENTRAL AND WESTERN NORTH DAKOTA  *****

CITY           SKY/WX    TMP DP  RH WIND       PRES   REMARKS
JAMESTOWN      FAIR      68  63  84 SW7       29.78R
BISMARCK       FAIR      73  56  54 NW13      29.86R
MINOT          FAIR      67  45  45 W12       29.86R
MINOT AFB      FAIR      64  46  51 NW10      29.84R
GARRISON         N/A     62  49  62 NW12      29.88R
WILLISTON      FAIR      66  39  37 NW9       29.94R
DICKINSON      FAIR      66  45  46 N12       29.93R
HETTINGER      FAIR      67  48  50 N10       29.94R
$$

 *****  OTHER OBSERVATIONS NORTHEAST NORTH DAKOTA  *****

CITY           SKY/WX    TMP DP  RH WIND       PRES   REMARKS
WALHALLA       FAIR      72  72 100 W7        29.70R
LANGDON        FAIR      68  63  83 NW14G20   29.76R
CAVALIER       FAIR      70  63  78 S9        29.69R
GRAFTON        FAIR      70  66  88 S12G17    29.71F
CANDO          FAIR      68  57  68 NW15      29.81R
FORT TOTTEN      N/A     70  60  70 NW3       29.95S
ROLLA          FAIR      64  52  63 NW18      29.81R
RUGBY          FAIR      68  52  56 NW16      29.82R
 ***** THE ABOVE OBSERVATIONS ARE NON NWS ARE NOT QUALITY
        CONTROLLED AND MAY MIS-REPORT RAIN FOR SNOW...
$$

 *****  OTHER OBSERVATIONS SOUTHEAST NORTH DAKOTA *****

CITY           SKY/WX    TMP DP  RH WIND       PRES   REMARKS
COOPERSTOWN    FAIR      66  64  94 W12       29.78R
VALLEY CITY      N/A     68  68 100 S12       29.79S
OAKES          NOT AVBL
GWINNER        CLEAR     64  63  94 CALM      29.80R
SHEYENNE NWR     N/A     68  65  89 S7        29.95S
BUFFALO          N/A     69  62  79 N12         N/A
WYNDMERE       NOT AVBL
 ***** THE ABOVE OBSERVATIONS ARE NON NWS ARE NOT QUALITY
       CONTROLLED AND MAY MIS-REPORT RAIN FOR SNOW...
$$

  *****  WEATHER ACROSS NORTHERN MINNESOTA  *****

CITY           SKY/WX    TMP DP  RH WIND       PRES   REMARKS
FLAG ISLAND    FAIR      73  63  68 S5        29.73F
WARROAD        FAIR      68  63  83 S6        29.75F
ROSEAU         FAIR      68  61  77 S10       29.74F
HALLOCK        FAIR      72  63  73 S17       29.69F
THF RVR FALLS  FAIR      67  61  81 S9        29.78S
HALSTAD          N/A     67  63  84 S12         N/A
FOSSTON        FAIR      64  59  82 S8        29.80F
BAUDETTE       FAIR      65  60  84 S5        29.78S
WASKISH        FAIR      64  59  82 CALM      29.81S
CROOKSTON      FAIR      72  63  73 S16       29.75S
$$
  *****  WEATHER ACROSS CENTRAL AND WEST MINNESOTA  *****

CITY           SKY/WX    TMP DP  RH WIND       PRES   REMARKS
BEMIDJI        FAIR      64  57  77 S7        29.83S
PARK RAPIDS    FAIR      65  60  84 S6        29.86R
WADENA         FAIR      61  61 100 CALM      29.86F
DETROIT LAKES  FAIR      68  63  83 S12       29.84S
MOORHEAD       FAIR      68  63  83 S12       29.80R
FERGUS FALLS   FAIR      68  63  83 S13       29.82F
ELBOW LAKE     FAIR      64  63  96 SE9       29.86S
MORRIS MN      FAIR      64  63  94 SE7       29.85S
STAPLES        FAIR      63  59  88 S3        29.87R
WHEATON        FAIR      64  61  88 SE9       29.84F
$$
  *****  WEATHER ELSEWHERE ACROSS MINNESOTA  *****

CITY           SKY/WX    TMP DP  RH WIND       PRES   REMARKS
DULUTH         FAIR      65  61  87 SW7       29.89S
INTRNTL FALLS  FAIR      66  58  75 VRB5      29.81S
ELY            FAIR      64  57  77 S3        29.87F
CLOQUET        FAIR      64  57  77 SW3       29.90R
BRAINERD       FAIR      63  59  87 S3        29.87S
HIBBING        FAIR      57  56  96 CALM      29.88R
ALEXANDRIA     FAIR      67  63  87 S6        29.89R
SAINT CLOUD    FAIR      64  63  96 CALM      29.88R
MINNEAPOLIS    FAIR      70  63  78 S6        29.90R
$$

  *****  WEATHER ACROSS SOUTH DAKOTA  *****

CITY           SKY/WX    TMP DP  RH WIND       PRES   REMARKS
SIOUX FALLS    CLOUDY    74  66  76 S14       29.87R
BROOKINGS      FAIR      69  64  84 SE12      29.86F
WATERTOWN      FAIR      69  65  86 S8        29.84R
HURON          FAIR      72  64  76 SE10      29.79F
SISSETON         N/A     66  64  93 S6        29.81S
ABERDEEN       FAIR      68  64  87 S8        29.81R
MITCHELL       FAIR      69  65  86 SE6       29.82R
PIERRE         FAIR      73  66  78 E8        29.79R
MOBRIDGE       FAIR      70  61  73 N9        29.82R
RAPID CITY     FAIR      67  43  41 NW12      29.93R
$$

  *****  SOME WEATHER IN NEARBY STATES *****

CITY           SKY/WX    TMP DP  RH WIND       PRES   REMARKS
GLASGOW MT     FAIR      64  31  28 N14       29.99R
GREAT FALLS MT FAIR      64  38  38 E10       30.02R
CHEYENNE WY    FAIR      64  29  26 W8        30.12R
SCOTTSBLUFF NE FAIR      69  49  48 SE3       29.93S
OMAHA NE       CLOUDY    79  61  53 SE18      29.86F
DES MOINES IA  MOCLDY    76  65  68 E8        29.92S
DAVENPORT IA   FAIR      63  61  93 E3        29.98S
CHICAGO IL     FAIR      71  54  54 SE3       29.98R
EAU CLAIRE WI  FAIR      64  61  90 S5        29.92S
LA CROSSE WI   FAIR      67  63  87 SE5       29.94R
$$

  *****  SOME NATIONAL WEATHER *****

CITY           SKY/WX    TMP DP  RH WIND       PRES   REMARKS
LA GUARDIA NY  FAIR      82  66  58 SW8       29.87F
RALEIGH NC     FAIR      77  70  79 CALM      30.01R
ATLANTA GA     FAIR      78  69  73 W5        30.04S
NEW ORLEANS LA MOCLDY    80  74  81 CALM      29.99R
OKLAHOMA CITY  FAIR      76  72  87 S8        29.97R
ALBUQUERQUE NM CLOUDY    77  45  32 E16       30.15R
SALT LAKE CITY FAIR      85  42  22 SE7       29.96S
LOS ANGELES CA FAIR      67  61  81 W14       29.93R
BOISE ID       FAIR      75  40  28 NW3       29.95R
SEATTLE WA     FAIR      66  48  52 NW5       30.16R
$$

*** WEATHER ACROSS MANITOBA...SASKATCHEWAN AND ONTARIO ***
                ***ONTARIO***

CITY           SKY/WX    TMP DP  RH WIND       PRES   REMARKS
GERALDTON      PTCLDY    61  54  77 SW2       29.80R
THUNDER BAY    CLEAR     61  59  94 NW6       29.82R
SIOUX LOOKOUT  PTCLDY    64  55  72 S5        29.76S
TORONTO        CLEAR     63  55  77 W9        29.95R
BIG TROUT LK   CLEAR     64  55  72 VRB2      29.62S
PICKLE LAKE    NOT AVBL
DRYDEN         CLEAR     68  55  64 SW10      29.76F
KENORA         PTCLDY    72  59  64 S14       29.75S
$$
                *** MANITOBA***

CITY           SKY/WX    TMP DP  RH WIND       PRES   REMARKS
BRANDON        MOCLDY    64  50  59 NW15G21   29.76R
DAUPHIN        CLEAR     63  54  72 W12       29.74R
ISLAND LAKE    PTCLDY    73  55  53 S6        29.52F
PILOT MOUND      N/A     68  55  64 NW15G23     N/A
THE PAS        CLEAR     59  52  77 W7        29.67R
THOMPSON       MOCLDY    61  57  88 NW12      29.53S
WINNIPEG       PTCLDY    75  61  60 S18G25    29.64R
LYNN LAKE      MOCLDY    55  54  94 MISG      29.57S
CHURCHILL      FOG       52  52 100 E13       29.60F VSB 1/4
GILLAM         LGT RAIN  61  55  82 E5        29.54F
$$
                ***SASKATCHEWAN***

CITY           SKY/WX    TMP DP  RH WIND       PRES   REMARKS
ESTEVAN        MOCLDY    55  39  54 W8        29.91R
KINDERSLEY     PTCLDY    54  37  54 NW7       29.98R
LLOYDMINSTER   CLEAR     50  45  81 SW8       29.92R
PRINCE ALBERT  PTCLDY    57  45  62 W6        29.86R
REGINA         CLEAR     50  36  57 W10       29.93R
YORKTON        CLEAR     59  43  55 W14G21    29.84R


USA.gov is the U.S. government's official web portal to all federal, state and local government web resources and services.